TimeEDT,TemperatureF,Dew PointF,Humidity,Sea Level PressureIn,VisibilityMPH,Wind Direction,Wind SpeedMPH,Gust SpeedMPH,PrecipitationIn,Events,Conditions,WindDirDegrees,DateUTC
12:50 AM,48.2,48.2,100,-9999,0.0,SE,25.3,-,N/A,Fog,Light Drizzle,140,2013-06-28 04:50:00
1:50 AM,48.2,48.2,100,-9999,0.0,SE,24.2,-,N/A,Fog,Light Drizzle,140,2013-06-28 05:50:00
2:52 AM,50.0,50.0,100,-9999,0.0,SE,28.8,35.7,N/A,Fog,Light Drizzle,130,2013-06-28 06:52:00
3:52 AM,48.2,48.2,100,-9999,0.0,SE,36.8,-,N/A,Fog-Rain,Rain Showers,130,2013-06-28 07:52:00
4:50 AM,46.4,46.4,100,-9999,0.0,ESE,36.8,48.3,N/A,Fog-Rain,Rain Showers,120,2013-06-28 08:50:00
5:51 AM,46.4,46.4,100,-9999,0.0,ESE,36.8,47.2,N/A,Fog-Rain,Rain Showers,110,2013-06-28 09:51:00
6:50 AM,44.6,44.6,100,-9999,0.1,SE,42.6,49.5,N/A,Fog-Rain,Rain Showers,140,2013-06-28 10:50:00
7:50 AM,44.6,44.6,100,-9999,0.1,SSE,35.7,-,N/A,Fog-Rain,Light Rain Showers,150,2013-06-28 11:50:00
8:49 AM,44.6,44.6,100,-9999,0.1,SSE,39.1,-,N/A,Fog-Rain,Light Rain Showers,150,2013-06-28 12:49:00
9:48 AM,46.4,46.4,100,-9999,0.1,SSE,35.7,-,N/A,Fog-Rain,Rain Showers,150,2013-06-28 13:48:00
10:49 AM,50.0,50.0,100,-9999,0.0,SSE,42.6,61.0,N/A,Fog-Rain,Light Rain Showers,160,2013-06-28 14:49:00
11:49 AM,51.8,51.8,100,-9999,0.0,South,40.3,47.2,N/A,Fog-Rain,Light Rain Showers,180,2013-06-28 15:49:00
12:50 PM,50.0,50.0,100,-9999,0.0,South,36.8,43.7,N/A,Fog,Drizzle,180,2013-06-28 16:50:00
1:53 PM,51.8,51.8,100,-9999,0.0,SSW,35.7,44.9,N/A,Fog,Drizzle,200,2013-06-28 17:53:00
2:50 PM,51.8,51.8,100,-9999,0.0,SSW,38.0,43.7,N/A,Fog,Fog,200,2013-06-28 18:50:00
3:53 PM,51.8,51.8,100,-9999,0.0,SSW,34.5,-,N/A,Fog,Fog,200,2013-06-28 19:53:00
4:49 PM,51.8,51.8,100,-9999,0.0,SW,28.8,38.0,N/A,Fog,Fog,220,2013-06-28 20:49:00
5:51 PM,51.8,51.8,100,-9999,0.1,SW,26.5,32.2,N/A,Fog,Fog,230,2013-06-28 21:51:00
6:52 PM,51.8,51.8,100,-9999,0.0,SSW,27.6,-,N/A,Fog,Fog,210,2013-06-28 22:52:00
7:48 PM,53.6,53.6,100,-9999,0.0,SW,23.0,-,N/A,Fog,Fog,220,2013-06-28 23:48:00
8:49 PM,51.8,51.8,100,-9999,0.0,SSW,28.8,-,N/A,Fog-Rain,Rain Showers,200,2013-06-29 00:49:00
9:51 PM,51.8,51.8,100,-9999,0.0,SSW,28.8,-,N/A,Fog,Fog,200,2013-06-29 01:51:00
10:50 PM,51.8,51.8,100,-9999,0.1,SW,20.7,27.6,N/A,Fog,Fog,220,2013-06-29 02:50:00
11:52 PM,51.8,51.8,100,-9999,0.0,SW,24.2,33.4,N/A,Fog,Fog,220,2013-06-29 03:52:00